Date,TemperatureHighF,TemperatureAvgF,TemperatureLowF,DewpointHighF,DewpointAvgF,DewpointLowF,HumidityHigh,HumidityAvg,HumidityLow,PressureMaxIn,PressureMinIn,WindSpeedMaxMPH,WindSpeedAvgMPH,GustSpeedMaxMPH,PrecipitationSumIn
2013-2-1,77.5,57.5,44.9,47.5,41.2,36.6,75,57,26,30.18,30.12,5,0,13,0.00
2013-2-2,74.5,62.8,50.6,49.4,43.1,37.8,72,51,28,30.21,30.12,10,0,12,0.00
2013-2-3,74.0,59.3,46.3,50.3,45.0,41.7,84,62,35,30.14,30.00,6,0,12,0.00
2013-2-4,69.2,52.9,41.8,52.8,44.8,36.3,89,75,52,30.10,29.99,6,0,11,0.00
2013-2-5,57.3,49.2,41.1,50.0,46.2,39.0,95,89,76,30.11,30.00,6,0,11,0.00
2013-2-6,63.9,52.6,43.3,49.5,46.4,40.6,94,81,56,30.12,30.01,5,0,11,0.00
2013-2-7,58.3,48.5,38.2,48.2,43.2,36.4,96,83,66,30.15,29.99,8,1,13,0.00
2013-2-8,51.8,45.0,38.8,44.1,38.6,36.3,91,79,60,29.99,29.88,13,2,20,0.00
2013-2-9,56.9,43.9,31.7,39.7,34.9,29.9,95,74,41,30.12,29.94,7,0,14,0.00
2013-2-10,54.8,44.3,34.3,42.0,37.9,32.0,95,79,54,30.11,30.02,6,0,11,0.00
2013-2-11,62.0,46.6,33.3,38.5,31.6,22.0,94,63,22,30.26,30.08,9,1,21,0.00
2013-2-12,62.8,47.2,32.5,35.1,29.0,20.8,83,54,20,30.35,30.26,12,1,16,0.00
2013-2-13,70.9,50.6,36.5,42.9,34.4,28.6,78,58,22,30.28,30.16,13,0,14,0.00
2013-2-14,77.5,55.7,37.6,40.1,34.0,30.4,77,50,19,30.20,30.07,7,1,20,0.00
2013-2-15,78.5,67.8,50.9,31.4,27.6,22.6,46,23,16,30.20,30.12,18,2,27,0.00
2013-2-16,80.2,63.6,46.3,31.6,26.6,22.6,45,26,13,30.16,29.97,11,1,13,0.00
2013-2-17,67.7,52.8,40.1,48.8,36.6,25.6,90,58,26,30.03,29.92,7,0,12,0.00
2013-2-18,62.5,52.2,43.7,47.9,44.9,41.2,94,77,54,30.06,29.94,5,1,13,0.00
2013-2-19,54.5,48.1,41.1,44.3,41.7,37.2,93,79,59,29.98,29.72,10,1,17,0.00
2013-2-20,59.0,46.4,33.4,41.3,32.8,28.1,86,61,41,30.01,29.72,7,1,12,0.00
2013-2-21,59.8,46.6,36.1,42.4,35.3,28.7,84,66,39,30.12,29.99,10,1,14,0.00
2013-2-22,65.2,49.1,35.2,36.7,32.7,29.6,81,57,30,30.21,30.12,6,0,13,0.00
2013-2-23,63.2,50.4,35.7,48.6,36.4,25.8,83,61,34,30.18,29.92,9,1,24,0.00
2013-2-24,65.4,54.3,41.3,31.5,20.3,14.3,59,29,15,30.21,30.03,17,3,25,0.00
2013-2-25,66.5,50.4,36.1,35.8,25.9,16.2,61,41,18,30.23,30.08,9,1,15,0.00
2013-2-26,73.5,54.0,35.1,38.9,29.4,23.5,75,44,16,30.15,30.00,13,1,21,0.00
2013-2-27,73.0,59.4,47.6,26.9,21.0,16.6,38,24,14,30.30,30.14,12,2,22,0.00
2013-2-28,79.5,62.9,49.9,34.0,24.0,16.6,43,24,13,30.33,30.24,7,1,16,0.00